[[{"header":{"parameterUnit":"m.s-1","parameterCategory":1,"la1":30.2991,"la2":30.254,"lo1":-89.0895,"lo2":-89.0444,"dy":0.0017,"dx":0.0017,"nx":28,"ny":28,"refTime":"2025-08-25T09:00:00:Z","depth":0,"parameterNumber":2,"parameterNumberName":"U-component_of_WINDS"},"data":[0,0,0,0,0,0,0,0,0,0,0,0,0,0,0,0,0,0,0,0,0,0,0,0,0,0,0,0,0,0,0,0,0,0,0,0,0,0,0,0,0,0,0,0,0,0,0,0,0,0,0,0,0,0,0,0,0,0,-4.714,-4.7142,0,-4.7255,-4.7256,-4.7258,-4.7168,-4.7164,-4.716,-4.7156,-4.7272,-4.7279,-4.7285,0,0,0,0,0,0,0,0,0,0,0,0,0,-4.6841,-4.6847,-4.714,-4.7142,-4.7143,-4.7255,-4.7257,-4.7258,-4.7168,-4.7164,-4.7159,-4.7155,-4.727,-4.7278,-4.7286,0,0,0,0,0,0,0,0,0,0,0,0,0,-4.6965,-4.6849,-4.714,-4.7112,-4.7111,-4.7255,-4.7257,-4.7258,-4.7169,-4.7164,-4.7158,-4.7152,-4.7268,-4.7277,-4.7287,-4.7465,0,0,-4.7318,-4.7322,0,0,0,0,0,0,0,0,-4.6958,-4.6976,-4.7115,-4.7114,-4.7113,-4.7191,-4.7193,-4.7328,-4.7171,-4.7147,-4.7156,-4.715,-4.725,-4.7261,-4.7295,-4.747,-4.7475,-4.7319,-4.7325,-4.7329,-4.7332,0,0,0,0,0,0,0,-4.695,-4.6971,-4.7186,-4.7117,-4.7116,-4.7093,-4.7104,-4.7219,-4.7229,-4.7149,-4.7142,-4.7157,-4.7248,-4.7286,-4.7297,-4.7477,-4.7318,-4.7327,-4.7333,-4.7337,-4.7801,-4.7807,0,0,0,0,0,0,-4.6944,-4.6964,-4.7182,-4.7189,-4.702,-4.7103,-4.7115,-4.7172,-4.7228,-4.7231,-4.7162,-4.7153,-4.7271,-4.7286,-4.7301,-4.751,-4.7329,-4.7338,-4.7344,-4.7795,-4.7802,-4.7809,0,0,0,0,0,0,-4.6938,-4.6965,-4.7177,-4.7075,-4.71,-4.7114,-4.7178,-4.7177,-4.7214,-4.7238,-4.7239,-4.7198,-4.7267,-4.7287,-4.7424,-4.7513,-4.7343,-4.7352,-4.7787,-4.7797,-4.7806,-4.7931,0,0,0,0,0,0,-4.693,-4.6963,-4.7031,-4.7077,-4.7106,-4.7299,-4.7184,-4.7184,-4.7232,-4.7221,-4.7273,-4.7275,-4.7264,-4.741,-4.7434,-4.7524,-4.736,-4.7779,-4.7792,-4.7803,-4.7919,-4.7944,-4.7965,0,0,0,0,0,-4.692,-4.7062,-4.7035,-4.7061,-4.7191,-4.7305,-4.7321,-4.7306,-4.724,-4.7307,-4.7323,-4.7274,-4.75,-4.7425,-4.7451,-4.7545,-4.7774,-4.7788,-4.7802,-4.7909,-4.7939,-4.7964,0,0,0,0,0,0,-4.7024,-4.7067,-4.7038,-4.7199,-4.7249,-4.7289,-4.7374,-4.7339,-4.7408,-4.7394,-4.7372,-4.7385,-4.7529,-4.7551,-4.7466,-4.7719,-4.7626,-4.7646,-4.7698,-4.7727,-4.775,-4.7739,-4.7368,0,0,0,0,0,-4.7066,-4.7155,-4.7188,-4.7327,-4.7354,-4.736,-4.7409,-4.7393,-4.7444,-4.7464,-4.7489,-4.754,-4.7622,-4.7676,-4.7754,-4.7923,-4.7932,-4.8001,-4.8024,-4.8043,-4.8059,-4.8148,-4.8179,-4.7856,-4.7856,-4.7855,0,0,-4.7153,-4.7188,-4.7245,-4.7349,-4.7386,-4.7477,-4.7378,-4.748,-4.7547,-4.7479,-4.7609,-4.7631,-4.7685,-4.7839,-4.7908,-4.7862,-4.8151,-4.8061,-4.8076,-4.8082,-4.8166,-4.8197,-4.8224,-4.7865,-4.7864,-4.7862,0,0,-4.7358,-4.7395,-4.7513,-4.7553,-4.761,-4.7614,-4.7643,-4.7689,-4.77,-4.7831,-4.7781,-4.7862,-4.8004,-4.8045,-4.8084,-4.8306,-4.8262,-4.8332,-4.845,-4.8537,-4.8563,-4.8585,-4.8661,-4.8689,-4.8349,-4.835,-4.835,0,-4.7459,-4.7595,-4.7579,-4.7684,-4.773,-4.7675,-4.7794,-4.7833,-4.7912,-4.7945,-4.7893,-4.807,-4.8104,-4.8265,-4.8319,-4.8354,-4.8385,-4.8324,-4.8561,-4.8583,-4.8603,-4.8675,-4.8705,-4.8357,-4.8356,-4.8356,-4.8355,0,-4.7715,-4.781,-4.79,-4.7978,-4.8035,-4.8147,-4.8146,-4.8206,-4.8186,-4.8195,-4.8328,-4.8367,-4.845,-4.8488,-4.847,-4.8647,-4.8616,-4.8564,-4.8469,-4.8642,-4.8709,-4.8737,-4.8368,-4.8366,-4.8363,-4.8361,0,0,-4.7985,-4.8054,-4.8087,-4.8121,-4.8181,-4.8254,-4.8364,-4.8445,-4.8496,-4.8554,-4.8643,-4.8766,-4.8717,-4.8762,-4.8748,-4.8825,-4.8995,-4.8762,-4.8763,-4.8801,-4.9189,-4.9226,-4.9258,-4.8968,-4.8974,-4.8978,-4.9184,0,-4.8189,-4.8379,-4.8369,-4.8546,-4.8633,-4.8583,-4.8678,-4.8725,-4.8737,-4.8812,-4.8825,-4.8911,-4.8842,-4.8868,-4.8943,-4.8958,-4.9072,-4.8944,-4.9049,-4.9053,-4.9032,-4.9294,-4.9333,-4.9525,-4.921,-4.9215,-4.9218,0,-4.8453,-4.8519,-4.8706,-4.8752,-4.8788,-4.8874,-4.8947,-4.9021,-4.9073,-4.9076,-4.9127,-4.9101,-4.921,-4.9116,-4.9266,-4.9179,-4.9222,-4.9236,-4.9243,-4.9249,-4.9143,-4.9303,-4.9586,-4.9613,-4.926,-4.9257,-4.9254,0,-4.8626,-4.8763,-4.8892,-4.8924,-4.8982,-4.9043,-4.907,-4.9117,-4.9166,-4.9231,-4.9263,-4.934,-4.9381,-4.9442,-4.9436,-4.9369,-4.9587,-4.9493,-4.959,-4.9591,-4.9635,-4.9631,-4.9924,-4.967,-4.967,-4.9669,-4.9669,0,-4.8853,-4.8968,-4.8971,-4.9049,-4.9177,-4.9164,-4.929,-4.9311,-4.9353,-4.9434,-4.9397,-4.9474,-4.9464,-4.9541,-4.9539,-4.9661,-4.9681,-4.9685,-4.9682,-4.9686,-4.9685,-4.971,-4.9695,-4.9677,-4.9675,-4.9674,-4.9672,0,-4.9066,-4.9073,-4.9209,-4.9254,-4.9268,-4.936,-4.9398,-4.9472,-4.9482,-4.9585,-4.9609,-4.9624,-4.9713,-4.9715,-4.9817,-4.9815,-4.9963,-4.9947,-4.9945,-4.994,-5.0036,-5.0025,-5.0352,-5.0393,-5.0116,-5.0119,-5.0121,0,-4.9208,-4.9295,-4.935,-4.9402,-4.9433,-4.9518,-4.9568,-4.956,-4.9614,-4.9681,-4.9747,-4.9833,-4.99,-5.0044,-5.0064,-5.0142,-5.0124,-5.0234,-5.0136,-5.0136,-5.0121,-5.0114,-5.0121,-5.0251,-5.0255,-5.0257,-5.0259,0,-4.9458,-4.9457,-4.9532,-4.9609,-4.9671,-4.973,-4.9786,-4.983,-4.9828,-4.9891,-4.9982,-5.0035,-5.0139,-5.0224,-5.03,-5.0326,-5.0292,-5.0291,-5.0317,-5.0319,-5.0312,-5.0313,-4.9993,-5.0282,-5.028,-5.0278,-5.0277,-5.0276,-4.9637,-4.9711,-4.9761,-4.9846,-4.9887,-4.994,-5.0011,-5.0031,-5.0106,-5.019,-5.0182,-5.0282,-5.0332,-5.043,-5.0464,-5.0542,-5.0503,-5.0542,-5.0551,-5.0559,-5.0567,-5.0305,-5.0556,-5.0556,-5.0555,-5.0555,-5.0554,0,-4.988,-4.9911,-4.9989,-5.0068,-5.0134,-5.0099,-5.0159,-5.0216,-5.0305,-5.0355,-5.0423,-5.0527,-5.0609,-5.0636,-5.0716,-5.0773,-5.0759,-5.0794,-5.0787,-5.0793,-5.0599,-5.0567,-5.0803,-5.0803,-5.0803,-5.0803,-5.0803,-5.0803,-5.0014,-5.0138,-5.0144,-5.0287,-5.0317,-5.0415,-5.0452,-5.05,-5.0539,-5.0657,-5.0726,-5.0744,-5.0784,-5.0867,-5.094,-5.0946,-5.0975,-5.1016,-5.1015,-5.0832,-5.0807,-5.0783,-5.0752,-5.1024,-5.1024,-5.1201,-5.1203,-5.1204]},{"header":{"parameterUnit":"m.s-1","parameterCategory":1,"la1":30.2991,"la2":30.254,"lo1":-89.0895,"lo2":-89.0444,"dy":0.0017,"dx":0.0017,"nx":28,"ny":28,"refTime":"2025-08-25T09:00:00:Z","depth":0,"parameterNumber":3,"parameterNumberName":"V-component_of_WINDS"},"data":[0,0,0,0,0,0,0,0,0,0,0,0,0,0,0,0,0,0,0,0,0,0,0,0,0,0,0,0,0,0,0,0,0,0,0,0,0,0,0,0,0,0,0,0,0,0,0,0,0,0,0,0,0,0,0,0,0,0,-1.9641,-1.9641,0,-1.9625,-1.9625,-1.9625,-1.9602,-1.9601,-1.9601,-1.9601,-1.9582,-1.9582,-1.9582,0,0,0,0,0,0,0,0,0,0,0,0,0,-1.9649,-1.9649,-1.9641,-1.9641,-1.9641,-1.9625,-1.9625,-1.9625,-1.9602,-1.9601,-1.9601,-1.9601,-1.9582,-1.9582,-1.9582,0,0,0,0,0,0,0,0,0,0,0,0,0,-1.9641,-1.9649,-1.9641,-1.9628,-1.9626,-1.9625,-1.9625,-1.9625,-1.9602,-1.9601,-1.9601,-1.96,-1.9583,-1.9582,-1.9582,-1.9592,0,0,-1.9582,-1.9581,0,0,0,0,0,0,0,0,-1.9641,-1.964,-1.963,-1.9629,-1.9627,-1.9615,-1.9621,-1.9614,-1.9602,-1.9611,-1.9601,-1.96,-1.9594,-1.9592,-1.9591,-1.9591,-1.9591,-1.9581,-1.9581,-1.9581,-1.9581,0,0,0,0,0,0,0,-1.9642,-1.9641,-1.9635,-1.963,-1.9628,-1.9621,-1.9619,-1.9619,-1.9606,-1.961,-1.9609,-1.9607,-1.9593,-1.9591,-1.959,-1.959,-1.9581,-1.9581,-1.9581,-1.9581,-1.9595,-1.9596,0,0,0,0,0,0,-1.9645,-1.9642,-1.9635,-1.9634,-1.9633,-1.9622,-1.962,-1.9619,-1.9606,-1.9603,-1.9608,-1.9606,-1.9591,-1.959,-1.9589,-1.9598,-1.9581,-1.9581,-1.9581,-1.9595,-1.9595,-1.9596,0,0,0,0,0,0,-1.9645,-1.9645,-1.9636,-1.9638,-1.9636,-1.9622,-1.9622,-1.9619,-1.9618,-1.9604,-1.9601,-1.9609,-1.9591,-1.959,-1.9591,-1.9597,-1.9581,-1.9581,-1.9594,-1.9595,-1.9596,-1.9618,0,0,0,0,0,0,-1.9645,-1.9645,-1.965,-1.9638,-1.9636,-1.964,-1.9623,-1.962,-1.9617,-1.9615,-1.9604,-1.9601,-1.959,-1.9591,-1.9591,-1.9597,-1.9581,-1.9593,-1.9594,-1.9595,-1.9616,-1.9619,-1.9622,0,0,0,0,0,-1.9646,-1.9657,-1.965,-1.9649,-1.9642,-1.964,-1.9639,-1.9627,-1.9618,-1.9622,-1.9612,-1.9602,-1.9597,-1.9592,-1.9591,-1.9597,-1.9593,-1.9594,-1.9595,-1.9615,-1.9619,-1.9621,0,0,0,0,0,0,-1.967,-1.9655,-1.9648,-1.9655,-1.9649,-1.9636,-1.9641,-1.9631,-1.9627,-1.9625,-1.9609,-1.9607,-1.9609,-1.9603,-1.9598,-1.9604,-1.9593,-1.9594,-1.9609,-1.9612,-1.9614,-1.9615,-1.958,0,0,0,0,0,-1.9676,-1.9677,-1.9664,-1.9672,-1.9669,-1.9655,-1.9654,-1.9645,-1.9638,-1.9635,-1.9626,-1.9618,-1.9614,-1.9613,-1.9609,-1.9615,-1.9611,-1.9618,-1.9621,-1.9623,-1.9624,-1.9624,-1.9627,-1.9599,-1.9599,-1.9599,0,0,-1.969,-1.9681,-1.9683,-1.9676,-1.967,-1.967,-1.9653,-1.9654,-1.9653,-1.9635,-1.9635,-1.9628,-1.9618,-1.9622,-1.9623,-1.9617,-1.963,-1.9625,-1.9626,-1.9626,-1.9626,-1.9628,-1.963,-1.96,-1.96,-1.96,0,0,-1.9713,-1.9708,-1.9713,-1.9706,-1.9697,-1.9688,-1.9689,-1.9677,-1.9671,-1.9671,-1.9657,-1.9654,-1.965,-1.9642,-1.9638,-1.9655,-1.9644,-1.9654,-1.9668,-1.9668,-1.967,-1.9672,-1.9676,-1.9678,-1.9655,-1.9655,-1.9655,0,-1.973,-1.973,-1.9716,-1.9717,-1.9714,-1.9696,-1.97,-1.9695,-1.9685,-1.9682,-1.9675,-1.9666,-1.9659,-1.9659,-1.9663,-1.9661,-1.966,-1.9656,-1.9671,-1.9673,-1.9674,-1.9678,-1.968,-1.9657,-1.9656,-1.9656,-1.9656,0,-1.975,-1.975,-1.9755,-1.9745,-1.9742,-1.9745,-1.973,-1.9728,-1.9718,-1.9709,-1.9707,-1.9697,-1.969,-1.9689,-1.968,-1.9687,-1.9683,-1.9674,-1.9662,-1.9678,-1.9681,-1.9683,-1.9658,-1.9658,-1.9657,-1.9657,0,0,-1.9791,-1.9771,-1.9773,-1.9767,-1.9755,-1.9753,-1.9754,-1.9746,-1.9744,-1.9737,-1.9736,-1.973,-1.972,-1.9716,-1.9705,-1.9705,-1.9717,-1.9696,-1.9695,-1.9699,-1.9721,-1.9728,-1.973,-1.9709,-1.971,-1.971,-1.9722,0,-1.9811,-1.9811,-1.9797,-1.9801,-1.9799,-1.9781,-1.9781,-1.9772,-1.9762,-1.9758,-1.9747,-1.9743,-1.9731,-1.9728,-1.9727,-1.9716,-1.9721,-1.9715,-1.9706,-1.9706,-1.9709,-1.9732,-1.974,-1.9752,-1.9723,-1.9723,-1.9723,0,-1.9835,-1.9828,-1.9832,-1.9816,-1.9814,-1.9815,-1.9805,-1.9802,-1.9791,-1.9783,-1.9776,-1.9764,-1.9761,-1.975,-1.9744,-1.974,-1.9736,-1.9729,-1.9729,-1.9728,-1.9716,-1.973,-1.9755,-1.9757,-1.9726,-1.9726,-1.9725,0,-1.9862,-1.9854,-1.9854,-1.985,-1.9832,-1.9832,-1.9824,-1.9812,-1.9808,-1.9799,-1.9796,-1.9787,-1.9782,-1.9774,-1.9759,-1.9752,-1.9754,-1.9742,-1.9747,-1.9747,-1.9748,-1.9749,-1.9772,-1.9747,-1.9747,-1.9747,-1.9747,0,-1.9885,-1.9888,-1.9865,-1.9866,-1.9867,-1.985,-1.9851,-1.9841,-1.983,-1.9827,-1.981,-1.9807,-1.9787,-1.9781,-1.9769,-1.9765,-1.9763,-1.9756,-1.9753,-1.9757,-1.9758,-1.9754,-1.9753,-1.9747,-1.9747,-1.9747,-1.9747,0,-1.9916,-1.9902,-1.99,-1.9883,-1.9878,-1.988,-1.9864,-1.9862,-1.9851,-1.9846,-1.9844,-1.9826,-1.9818,-1.9801,-1.9789,-1.978,-1.9779,-1.9774,-1.9783,-1.9781,-1.9786,-1.9785,-1.9807,-1.9808,-1.9783,-1.9783,-1.9784,0,-1.9932,-1.9933,-1.9915,-1.9912,-1.9905,-1.99,-1.9894,-1.9877,-1.9872,-1.9857,-1.9857,-1.9847,-1.9839,-1.9826,-1.9811,-1.98,-1.9794,-1.9802,-1.9792,-1.9796,-1.9792,-1.9792,-1.9791,-1.9804,-1.9805,-1.9805,-1.9805,0,-1.9961,-1.9953,-1.9947,-1.9937,-1.9931,-1.9922,-1.9913,-1.9911,-1.989,-1.9885,-1.9877,-1.987,-1.9856,-1.9846,-1.9833,-1.9823,-1.981,-1.9808,-1.9809,-1.9813,-1.9818,-1.9814,-1.9788,-1.9808,-1.9808,-1.9808,-1.9808,-1.9807,-1.9984,-1.9983,-1.9969,-1.9962,-1.9953,-1.9943,-1.994,-1.9928,-1.992,-1.9908,-1.9897,-1.9889,-1.9874,-1.9855,-1.9846,-1.9838,-1.9832,-1.9833,-1.9833,-1.9834,-1.9835,-1.982,-1.9836,-1.9836,-1.9836,-1.9836,-1.9836,0,-2.0011,-2.0,-1.9994,-1.998,-1.9974,-1.9962,-1.995,-1.9945,-1.9938,-1.9926,-1.9917,-1.9906,-1.9895,-1.9878,-1.9866,-1.9862,-1.9856,-1.986,-1.9859,-1.9857,-1.9842,-1.9842,-1.9865,-1.9865,-1.9865,-1.9865,-1.9865,-1.9865,-2.0024,-2.0021,-2.0011,-2.0002,-1.9992,-1.9984,-1.9978,-1.9968,-1.9958,-1.9946,-1.9937,-1.9926,-1.9911,-1.9897,-1.9886,-1.9881,-1.9877,-1.9882,-1.9875,-1.9861,-1.9858,-1.9856,-1.9856,-1.9882,-1.9882,-1.9891,-1.9891,-1.9891]}]]